[[{"header":{"parameterUnit":"m.s-1","parameterCategory":1,"la1":30.2991,"la2":30.254,"lo1":-89.0895,"lo2":-89.0444,"dy":0.0017,"dx":0.0017,"nx":28,"ny":28,"refTime":"2024-03-12T09:00:00:Z","depth":0,"parameterNumber":2,"parameterNumberName":"U-component_of_WINDS"},"data":[0,0,0,0,0,0,0,0,0,0,0,0,0,0,0,0,0,0,0,0,0,0,0,0,0,0,0,0,0,0,0,0,0,0,0,0,0,0,0,0,0,0,0,0,0,0,0,0,0,0,0,0,0,0,0,0,0,0,-3.3531,-3.3531,0,-3.353,-3.353,-3.353,-3.3475,-3.3473,-3.3472,-3.3471,-3.347,-3.3471,-3.3472,0,0,0,0,0,0,0,0,0,0,0,0,0,-3.3487,-3.3489,-3.3531,-3.3531,-3.3531,-3.353,-3.353,-3.353,-3.3475,-3.3473,-3.3471,-3.347,-3.3469,-3.3471,-3.3472,0,0,0,0,0,0,0,0,0,0,0,0,0,-3.3498,-3.3489,-3.3531,-3.3503,-3.3501,-3.353,-3.353,-3.353,-3.3475,-3.3473,-3.3471,-3.3469,-3.3469,-3.3471,-3.3473,-3.3528,0,0,-3.3479,-3.3479,0,0,0,0,0,0,0,0,-3.3498,-3.35,-3.3507,-3.3505,-3.3502,-3.35,-3.3514,-3.3529,-3.3476,-3.3485,-3.347,-3.3468,-3.3482,-3.3482,-3.3487,-3.3528,-3.3528,-3.3479,-3.348,-3.3481,-3.3481,0,0,0,0,0,0,0,-3.3497,-3.35,-3.353,-3.3507,-3.3504,-3.3492,-3.3491,-3.3517,-3.3495,-3.3484,-3.348,-3.3481,-3.348,-3.3485,-3.3486,-3.3527,-3.3479,-3.348,-3.3482,-3.3482,-3.3615,-3.3617,0,0,0,0,0,0,-3.35,-3.3499,-3.353,-3.353,-3.3495,-3.3494,-3.3493,-3.3503,-3.3495,-3.3492,-3.3483,-3.3478,-3.3483,-3.3484,-3.3486,-3.3549,-3.3481,-3.3483,-3.3484,-3.3612,-3.3615,-3.3618,0,0,0,0,0,0,-3.3499,-3.3503,-3.353,-3.3514,-3.3516,-3.3497,-3.3509,-3.3504,-3.3509,-3.3494,-3.349,-3.3491,-3.3481,-3.3483,-3.3518,-3.3548,-3.3484,-3.3485,-3.3609,-3.3613,-3.3616,-3.3676,0,0,0,0,0,0,-3.3498,-3.3503,-3.3523,-3.3515,-3.3517,-3.3561,-3.3511,-3.3506,-3.3513,-3.3507,-3.3501,-3.3498,-3.348,-3.3515,-3.352,-3.355,-3.3487,-3.3606,-3.3611,-3.3615,-3.3671,-3.3681,-3.369,0,0,0,0,0,-3.3497,-3.354,-3.3524,-3.3528,-3.3541,-3.3563,-3.3564,-3.3542,-3.3515,-3.3535,-3.3526,-3.3498,-3.3546,-3.3519,-3.3524,-3.3555,-3.3604,-3.361,-3.3615,-3.3667,-3.3679,-3.369,0,0,0,0,0,0,-3.3551,-3.3538,-3.352,-3.3562,-3.3564,-3.3554,-3.3577,-3.3556,-3.3565,-3.3559,-3.3532,-3.3532,-3.357,-3.3567,-3.3538,-3.3609,-3.357,-3.3577,-3.3608,-3.362,-3.3629,-3.3627,-3.3488,0,0,0,0,0,-3.3568,-3.3586,-3.3574,-3.3612,-3.3614,-3.3596,-3.3605,-3.3588,-3.3589,-3.3589,-3.3582,-3.3585,-3.36,-3.3611,-3.3624,-3.3673,-3.367,-3.3697,-3.3706,-3.3714,-3.3718,-3.3743,-3.3755,-3.3635,-3.3635,-3.3635,0,0,-3.3602,-3.3598,-3.361,-3.3623,-3.3622,-3.3642,-3.3597,-3.3619,-3.3634,-3.3593,-3.3624,-3.362,-3.3621,-3.3663,-3.3681,-3.3661,-3.3752,-3.372,-3.3727,-3.3727,-3.375,-3.3761,-3.3771,-3.3638,-3.3638,-3.3637,0,0,-3.3674,-3.3674,-3.3704,-3.3706,-3.3707,-3.3695,-3.3703,-3.3697,-3.3693,-3.3725,-3.3694,-3.3712,-3.374,-3.3741,-3.3746,-3.3824,-3.3799,-3.383,-3.3876,-3.3902,-3.3911,-3.3919,-3.3945,-3.3955,-3.3836,-3.3836,-3.3836,0,-3.3716,-3.3744,-3.3723,-3.3748,-3.3754,-3.372,-3.3752,-3.3755,-3.376,-3.3765,-3.3744,-3.3778,-3.3777,-3.3818,-3.3838,-3.3844,-3.3851,-3.3828,-3.3911,-3.3919,-3.3927,-3.3951,-3.3961,-3.3839,-3.3839,-3.3839,-3.3838,0,-3.3796,-3.3816,-3.3842,-3.3848,-3.3858,-3.3886,-3.387,-3.3883,-3.3867,-3.3859,-3.3892,-3.389,-3.3903,-3.3913,-3.3897,-3.3953,-3.394,-3.3916,-3.3876,-3.3942,-3.3964,-3.3974,-3.3844,-3.3843,-3.3842,-3.3841,0,0,-3.3896,-3.3893,-3.3903,-3.3905,-3.3906,-3.3922,-3.395,-3.3963,-3.3974,-3.3981,-3.4003,-3.4029,-3.4007,-3.4013,-3.3998,-3.4021,-3.4081,-3.3993,-3.3993,-3.4007,-3.4141,-3.4157,-3.4168,-3.4067,-3.4069,-3.407,-3.414,0,-3.3963,-3.4009,-3.3993,-3.404,-3.4059,-3.403,-3.4055,-3.4058,-3.4053,-3.4068,-3.4063,-3.408,-3.4051,-3.4054,-3.4076,-3.4069,-3.4107,-3.4065,-3.4086,-3.4087,-3.4082,-3.418,-3.4196,-3.4262,-3.4149,-3.4151,-3.4152,0,-3.4046,-3.4057,-3.4106,-3.4105,-3.4113,-3.4135,-3.4146,-3.4162,-3.4167,-3.4161,-3.417,-3.4151,-3.418,-3.4144,-3.4182,-3.4154,-3.4163,-3.4162,-3.4164,-3.4161,-3.412,-3.4177,-3.4282,-3.4291,-3.4166,-3.4165,-3.4164,0,-3.4111,-3.4139,-3.4171,-3.4176,-3.4176,-3.4192,-3.4193,-3.4196,-3.4206,-3.4217,-3.4223,-3.4238,-3.4245,-3.4257,-3.4243,-3.4219,-3.4284,-3.4247,-3.4278,-3.4279,-3.4289,-3.4288,-3.4394,-3.4302,-3.4302,-3.4301,-3.4301,0,-3.4186,-3.4216,-3.4201,-3.422,-3.4255,-3.4238,-3.4272,-3.4271,-3.4274,-3.4294,-3.4271,-3.429,-3.4273,-3.4291,-3.4281,-3.4314,-3.4318,-3.4314,-3.431,-3.4313,-3.4313,-3.4315,-3.4309,-3.4304,-3.4303,-3.4303,-3.4302,0,-3.4261,-3.4252,-3.4286,-3.4285,-3.4286,-3.4311,-3.4311,-3.4329,-3.4325,-3.435,-3.4355,-3.4346,-3.4366,-3.4355,-3.4376,-3.437,-3.4411,-3.4403,-3.4409,-3.4406,-3.4437,-3.4433,-3.4545,-3.4558,-3.4461,-3.4462,-3.4462,0,-3.4307,-3.433,-3.4333,-3.4345,-3.4347,-3.4367,-3.4377,-3.4363,-3.4375,-3.4384,-3.4402,-3.442,-3.4433,-3.4468,-3.4463,-3.4479,-3.4469,-3.4508,-3.4471,-3.4474,-3.4466,-3.4464,-3.4465,-3.4513,-3.4514,-3.4515,-3.4516,0,-3.4389,-3.4384,-3.4399,-3.4415,-3.4428,-3.4439,-3.4448,-3.4459,-3.4446,-3.446,-3.4481,-3.4492,-3.4514,-3.4532,-3.4547,-3.4549,-3.453,-3.4529,-3.4536,-3.4538,-3.4539,-3.4536,-3.4425,-3.4525,-3.4524,-3.4523,-3.4523,-3.4522,-3.4448,-3.4468,-3.4473,-3.4492,-3.4498,-3.4508,-3.4526,-3.4524,-3.4541,-3.4558,-3.455,-3.4574,-3.4581,-3.4599,-3.4604,-3.4622,-3.4607,-3.4619,-3.4621,-3.4623,-3.4626,-3.454,-3.4626,-3.4625,-3.4625,-3.4625,-3.4625,0,-3.4526,-3.453,-3.4548,-3.4562,-3.4577,-3.4561,-3.4571,-3.4585,-3.4606,-3.4615,-3.4629,-3.4654,-3.4673,-3.4672,-3.4689,-3.4705,-3.4697,-3.4709,-3.4706,-3.4706,-3.464,-3.463,-3.4716,-3.4716,-3.4716,-3.4716,-3.4716,-3.4716,-3.4568,-3.46,-3.4597,-3.4633,-3.4636,-3.4659,-3.4666,-3.4676,-3.4682,-3.4711,-3.4727,-3.4727,-3.4732,-3.475,-3.4767,-3.4766,-3.4772,-3.4788,-3.4784,-3.472,-3.4711,-3.4702,-3.4693,-3.479,-3.479,-3.4848,-3.4849,-3.4849]},{"header":{"parameterUnit":"m.s-1","parameterCategory":1,"la1":30.2991,"la2":30.254,"lo1":-89.0895,"lo2":-89.0444,"dy":0.0017,"dx":0.0017,"nx":28,"ny":28,"refTime":"2024-03-12T09:00:00:Z","depth":0,"parameterNumber":3,"parameterNumberName":"V-component_of_WINDS"},"data":[0,0,0,0,0,0,0,0,0,0,0,0,0,0,0,0,0,0,0,0,0,0,0,0,0,0,0,0,0,0,0,0,0,0,0,0,0,0,0,0,0,0,0,0,0,0,0,0,0,0,0,0,0,0,0,0,0,0,2.585,2.5851,0,2.5965,2.5966,2.5968,2.6093,2.6095,2.6097,2.6099,2.6213,2.6214,2.6215,0,0,0,0,0,0,0,0,0,0,0,0,0,2.5737,2.5738,2.585,2.5851,2.5853,2.5965,2.5966,2.5968,2.6093,2.6095,2.6098,2.61,2.6212,2.6214,2.6216,0,0,0,0,0,0,0,0,0,0,0,0,0,2.5812,2.5739,2.5849,2.5929,2.5937,2.5965,2.5967,2.5968,2.6093,2.6095,2.6098,2.6101,2.6212,2.6214,2.6216,2.6173,0,0,2.6222,2.6223,0,0,0,0,0,0,0,0,2.5808,2.5816,2.5916,2.5923,2.5933,2.6018,2.5969,2.6037,2.6092,2.6033,2.6099,2.6102,2.6145,2.6153,2.6169,2.6179,2.6184,2.6222,2.6223,2.6224,2.6225,0,0,0,0,0,0,0,2.5802,2.5812,2.5895,2.5917,2.5927,2.5958,2.5972,2.5982,2.6072,2.6039,2.6048,2.606,2.6151,2.6166,2.6172,2.6185,2.6222,2.6224,2.6225,2.6226,2.617,2.6167,0,0,0,0,0,0,2.5785,2.5807,2.5892,2.5899,2.5876,2.5958,2.5973,2.5988,2.6073,2.6089,2.6058,2.6066,2.6162,2.617,2.6177,2.6135,2.6224,2.6226,2.6227,2.6173,2.6169,2.6166,0,0,0,0,0,0,2.5782,2.5792,2.5887,2.5855,2.587,2.5957,2.5972,2.5988,2.6004,2.6087,2.6104,2.6057,2.6164,2.6174,2.6174,2.614,2.6227,2.6229,2.6176,2.6172,2.6168,2.6049,0,0,0,0,0,0,2.5779,2.579,2.5775,2.5854,2.5871,2.5883,2.597,2.5989,2.6008,2.6019,2.6091,2.6106,2.6167,2.6171,2.6176,2.6145,2.623,2.6179,2.6174,2.6169,2.6056,2.6041,2.6029,0,0,0,0,0,2.5774,2.5735,2.5773,2.5783,2.5854,2.588,2.589,2.5962,2.6005,2.599,2.6044,2.6104,2.6143,2.617,2.6177,2.6145,2.6182,2.6175,2.617,2.6062,2.6044,2.6029,0,0,0,0,0,0,2.5647,2.5747,2.579,2.5776,2.5819,2.5902,2.5885,2.594,2.5971,2.598,2.6068,2.6083,2.6073,2.611,2.6137,2.6111,2.6171,2.6166,2.6087,2.6071,2.6057,2.6048,2.6232,0,0,0,0,0,2.5618,2.5632,2.5718,2.5697,2.5717,2.5797,2.5811,2.5864,2.5911,2.5929,2.5983,2.6026,2.6049,2.6062,2.6087,2.6062,2.6081,2.6045,2.6031,2.6019,2.6014,2.6005,2.5991,2.6147,2.6147,2.6147,0,0,2.5557,2.5613,2.5616,2.5673,2.5713,2.5725,2.5811,2.582,2.583,2.593,2.5935,2.5976,2.603,2.6018,2.6016,2.6048,2.5975,2.6011,2.6001,2.6002,2.5998,2.5983,2.597,2.6142,2.6143,2.6144,0,0,2.5452,2.5495,2.5484,2.5523,2.5583,2.5637,2.5634,2.5709,2.5741,2.5748,2.5824,2.5837,2.5873,2.591,2.5933,2.5845,2.5901,2.5851,2.5778,2.5769,2.5757,2.5747,2.5716,2.5704,2.5845,2.5845,2.5845,0,2.5368,2.5391,2.5471,2.5476,2.5499,2.5593,2.5583,2.5616,2.568,2.5694,2.573,2.578,2.5823,2.5822,2.5801,2.5816,2.5816,2.5843,2.5752,2.5743,2.5734,2.5707,2.5695,2.5839,2.5839,2.584,2.5841,0,2.5285,2.53,2.5283,2.5346,2.5367,2.5364,2.5444,2.5456,2.5507,2.5558,2.5564,2.5619,2.5658,2.5662,2.5711,2.5669,2.5688,2.5736,2.5799,2.5712,2.5687,2.5677,2.5829,2.5832,2.5834,2.5835,0,0,2.5102,2.5211,2.5204,2.5234,2.5308,2.5321,2.5323,2.5363,2.5372,2.5414,2.5418,2.5449,2.5496,2.5522,2.5576,2.5568,2.5497,2.5619,2.5621,2.5595,2.5456,2.5419,2.5405,2.5535,2.5534,2.5532,2.5452,0,2.5011,2.5021,2.5095,2.5084,2.5099,2.519,2.5192,2.5238,2.5285,2.5305,2.5358,2.5379,2.5438,2.5455,2.5451,2.5506,2.547,2.5513,2.554,2.554,2.5524,2.5392,2.5352,2.5273,2.5442,2.5441,2.544,0,2.4905,2.4943,2.4934,2.5011,2.502,2.5021,2.5065,2.5083,2.5137,2.5173,2.5203,2.5265,2.5273,2.5332,2.5344,2.5372,2.5388,2.5416,2.5415,2.542,2.5484,2.5394,2.525,2.5238,2.5425,2.5426,2.5427,0,2.4774,2.4822,2.4824,2.4847,2.4937,2.4935,2.4972,2.503,2.505,2.5088,2.5103,2.5141,2.5161,2.5189,2.526,2.5296,2.5265,2.5329,2.5294,2.5292,2.5283,2.5283,2.514,2.5292,2.5292,2.5293,2.5293,0,2.4665,2.4655,2.4767,2.4767,2.4761,2.4846,2.4837,2.4883,2.4933,2.4945,2.5025,2.5034,2.5127,2.5147,2.5202,2.5205,2.5213,2.5242,2.5257,2.5235,2.5231,2.5246,2.5253,2.529,2.529,2.5291,2.5291,0,2.4516,2.459,2.4598,2.4684,2.4705,2.4696,2.4769,2.4774,2.4828,2.4841,2.4849,2.4933,2.4961,2.5035,2.508,2.5118,2.5105,2.5133,2.5087,2.5097,2.5058,2.5061,2.492,2.4906,2.5066,2.5064,2.5063,0,2.4441,2.4437,2.4523,2.4537,2.4572,2.4593,2.4616,2.47,2.4719,2.4783,2.4779,2.4814,2.4846,2.4886,2.495,2.4986,2.5016,2.4964,2.5021,2.5,2.5016,2.5015,2.5016,2.4951,2.4949,2.4947,2.4945,0,2.4302,2.4339,2.4369,2.4412,2.4436,2.4474,2.4515,2.4522,2.4617,2.4635,2.4665,2.469,2.4739,2.4772,2.4819,2.4857,2.4917,2.4927,2.4921,2.4899,2.4873,2.4887,2.5053,2.493,2.4931,2.4932,2.4933,2.4934,2.4189,2.419,2.4252,2.4282,2.4323,2.4361,2.437,2.4427,2.4454,2.4501,2.4549,2.4574,2.4631,2.4701,2.4735,2.4756,2.4787,2.4778,2.4776,2.4772,2.4763,2.487,2.4764,2.4765,2.4765,2.4766,2.4766,0,2.4054,2.4099,2.4126,2.4184,2.4208,2.4265,2.4314,2.4331,2.4353,2.4401,2.4432,2.4468,2.4501,2.457,2.4609,2.4613,2.4642,2.4621,2.4621,2.4629,2.4732,2.4734,2.4597,2.4597,2.4597,2.4597,2.4597,2.4597,2.3987,2.3993,2.4038,2.4066,2.4111,2.4138,2.4162,2.4197,2.4237,2.4273,2.4302,2.4348,2.4405,2.445,2.4483,2.4503,2.4513,2.4483,2.4511,2.4606,2.4622,2.4637,2.4639,2.4485,2.4485,2.4408,2.4407,2.4406]}]]